TDRS 11 (39070 NORAD) Tracking and Keplerian Element Data

This shows tracking and keplerian element data for the satellite.

Feedback or suggestion? Click here.




ElementValue
Catalog39070
NameTDRS 11
Epoch Orbit4399
Epoch Day35.24541622
Epoch Year2025
RAAN19.4773
Inclination2.9048
Eccentricity0.0002976
Argument of Perigee1.7623
Mean Anonmoly27.4196
Mean Motion1.00266874
Decay Rate8.2E-07
L11 39070U 13004A 25035.24541622 .00000082 00000+0 00000+0 0 9996
L22 39070 2.9048 19.4773 0002976 1.7623 27.4196 1.00266874 43996



Live tracking and technical data element details for TDRS 11 (NORAD 39070). TDRS 11 can be tracked NOW for your location showing map with azimuth and elevation plus other details from your city location.







IsCatalogInMostPopularTable: catalog: 39070, numindb: 541
Update: records affected: 1



GetName: 39070 TDRS 11

Hit Count: updated at: Thu, 15 May 2025 09:38:45 GMT